Ortonville, MN

6:38 PM CST on November 19, 2017 (GMT -0600)
Ortonville Municipal-Martinson

Weather History for KVVV - December, 2012

Change the Weather History Date:

Monday, December 17, 2012

  Actual Average (KAQP) Record (KAQP)
Temperature  
Mean Temperature 19 °F -  
Max Temperature 21 °F 23 °F 42 °F (1997)
Min Temperature 17 °F 7 °F -16 °F (2008)
Degree Days  
Heating Degree Days 46    
Moisture  
Dew Point 18 °F    
Average Humidity 91    
Maximum Humidity 93    
Minimum Humidity 86    
Precipitation  
Precipitation 0.00 in - - ()
Sea Level Pressure  
Sea Level Pressure 29.71 in    
Wind  
Wind Speed 4 mph (NNW)    
Max Wind Speed 8 mph    
Max Gust Speed -    
Visibility 6 miles    
Events Snow    
Averages and records for this station are not official NWS values.
T = Trace of Precipitation, MM = Missing Value Source: NWS Daily Summary

Daily Weather History Graph

Daily Weather History Graph

Search for Another Location

Airport or City:

Trip Planner

Search our weather history database for the weather conditions in past years. The results will help you decide how hot, cold, wet, or windy it might be!

Date:

Astronomy

Dec. 17, 2012 Rise Set
Actual Time 7:59 AM CST 4:44 PM CST
Civil Twilight 7:25 AM CST 5:18 PM CST
Nautical Twilight 6:48 AM CST 5:55 PM CST
Astronomical Twilight 6:12 AM CST 6:31 PM CST
Moon 10:57 AM CST (12/17) 10:20 PM CST (12/17)
Length of Visible Light 9h 52m
Length of Day
8h 44m
Waxing Crescent, 25% of the Moon is Illuminated
Dec 17
Waxing Crescent
Dec 19
First Quarter
Dec 28
Full
Jan 4
Last Quarter
Jan 11
New

Hourly Weather History & Observations

Time (CST) Temp. Windchill Dew Point Humidity Pressure Visibility Wind Dir Wind Speed Gust Speed Precip Events Conditions
12:14 AM 19.4 °F 12.8 °F 17.6 °F 93% 29.81 in 10.0 mi NNW 4.6 mph - N/A   Overcast
12:34 AM 19.4 °F 12.8 °F 17.6 °F 93% 29.80 in 10.0 mi NNW 4.6 mph - N/A   Overcast
12:54 AM 19.4 °F 14.3 °F 17.6 °F 93% 29.80 in 10.0 mi NNW 3.5 mph - N/A   Overcast
1:14 AM 19.4 °F 11.5 °F 17.6 °F 93% 29.79 in 10.0 mi NNW 5.8 mph - N/A   Overcast
1:34 AM 19.4 °F 12.8 °F 17.6 °F 93% 29.79 in 10.0 mi NNW 4.6 mph - N/A   Overcast
1:54 AM 19.4 °F 10.4 °F 17.6 °F 93% 29.78 in 7.0 mi NNW 6.9 mph - N/A   Overcast
2:14 AM 19.4 °F 12.8 °F 17.6 °F 93% 29.78 in 7.0 mi NNW 4.6 mph - N/A   Overcast
2:33 AM 19.4 °F 12.8 °F 17.6 °F 93% 29.78 in 7.0 mi NNW 4.6 mph - N/A   Overcast
2:54 AM 19.4 °F 12.8 °F 17.6 °F 93% 29.78 in 5.0 mi NNW 4.6 mph - N/A   Overcast
3:13 AM 19.4 °F 11.5 °F 17.6 °F 93% 29.77 in 5.0 mi NNW 5.8 mph - N/A   Overcast
3:34 AM 19.4 °F 10.4 °F 15.8 °F 86% 29.76 in 5.0 mi NNW 6.9 mph - N/A   Overcast
3:54 AM 19.4 °F 12.8 °F 17.6 °F 93% 29.76 in 3.0 mi NNW 4.6 mph - N/A   Overcast
4:14 AM 19.4 °F 12.8 °F 17.6 °F 93% 29.76 in 2.0 mi NNW 4.6 mph - N/A   Overcast
4:34 AM 19.4 °F 14.3 °F 17.6 °F 93% 29.76 in 1.2 mi NNW 3.5 mph - N/A   Overcast
4:54 AM 19.4 °F 14.3 °F 15.8 °F 86% 29.76 in 0.8 mi NNW 3.5 mph - N/A   Overcast
5:14 AM 19.4 °F - 15.8 °F 86% 29.76 in 1.2 mi Calm Calm - N/A   Overcast
5:34 AM 17.6 °F - 15.8 °F 93% 29.75 in 7.0 mi Calm Calm - N/A   Overcast
6:14 AM 17.6 °F - 15.8 °F 93% 29.74 in 2.0 mi Calm Calm - N/A   Overcast
6:34 AM 17.6 °F - 15.8 °F 93% 29.75 in 1.5 mi Calm Calm - N/A   Overcast
6:53 AM 17.6 °F - 15.8 °F 93% 29.75 in 2.0 mi Calm Calm - N/A   Overcast
7:14 AM 17.6 °F - 15.8 °F 93% 29.75 in 1.8 mi Calm Calm - N/A   Overcast
7:33 AM 19.4 °F - 15.8 °F 86% 29.75 in 1.2 mi Calm Calm - N/A   Overcast
7:54 AM 19.4 °F - 15.8 °F 86% 29.75 in 1.5 mi Calm Calm - N/A   Overcast
8:14 AM 19.4 °F - 15.8 °F 86% 29.74 in 1.2 mi Calm Calm - N/A   Overcast
8:34 AM 19.4 °F - 15.8 °F 86% 29.75 in 1.0 mi Calm Calm - N/A   Overcast
8:54 AM 19.4 °F - 17.6 °F 93% 29.74 in 1.5 mi Calm Calm - N/A   Overcast
9:14 AM 19.4 °F - 17.6 °F 93% 29.74 in 1.5 mi Calm Calm - N/A   Overcast
9:34 AM 19.4 °F - 17.6 °F 93% 29.73 in 1.2 mi Calm Calm - N/A   Overcast
9:54 AM 19.4 °F - 17.6 °F 93% 29.73 in 3.0 mi Calm Calm - N/A   Overcast
10:14 AM 19.4 °F - 17.6 °F 93% 29.74 in 2.0 mi Calm Calm - N/A   Overcast
10:34 AM 19.4 °F - 17.6 °F 93% 29.74 in 2.0 mi Calm Calm - N/A Snow Light Snow
10:54 AM 19.4 °F - 17.6 °F 93% 29.73 in 1.8 mi Calm Calm - N/A Snow Light Snow
11:14 AM 21.2 °F 16.4 °F 19.4 °F 93% 29.72 in 1.5 mi NNW 3.5 mph - N/A Snow Light Snow
11:34 AM 21.2 °F 16.4 °F 17.6 °F 86% 29.71 in 5.0 mi NNW 3.5 mph - N/A Snow Light Snow
11:54 AM 21.2 °F 16.4 °F 19.4 °F 93% 29.70 in 7.0 mi NNW 3.5 mph - N/A Snow Light Snow
12:14 PM 21.2 °F 16.4 °F 19.4 °F 93% 29.70 in 7.0 mi NNW 3.5 mph - N/A Snow Light Snow
12:34 PM 21.2 °F 14.9 °F 19.4 °F 93% 29.69 in 4.0 mi NNW 4.6 mph - N/A Snow Light Snow
12:54 PM 21.2 °F 16.4 °F 19.4 °F 93% 29.69 in 5.0 mi NNW 3.5 mph - N/A Snow Light Snow
1:13 PM 21.2 °F 16.4 °F 19.4 °F 93% 29.68 in 10.0 mi NNW 3.5 mph - N/A Snow Light Snow
1:34 PM 21.2 °F - 19.4 °F 93% 29.67 in 10.0 mi Calm Calm - N/A   Overcast
1:53 PM 21.2 °F - 19.4 °F 93% 29.67 in 10.0 mi Calm Calm - N/A   Overcast
2:14 PM 21.2 °F 16.4 °F 19.4 °F 93% 29.66 in 10.0 mi NNW 3.5 mph - N/A   Overcast
2:34 PM 21.2 °F 14.9 °F 19.4 °F 93% 29.65 in 10.0 mi NNW 4.6 mph - N/A   Overcast
2:53 PM 21.2 °F 13.6 °F 19.4 °F 93% 29.65 in 10.0 mi NNW 5.8 mph - N/A   Overcast
3:14 PM 21.2 °F 13.6 °F 17.6 °F 86% 29.65 in 7.0 mi NNW 5.8 mph - N/A Snow Light Snow
3:34 PM 21.2 °F 12.6 °F 17.6 °F 86% 29.65 in 7.0 mi NNW 6.9 mph - N/A Snow Light Snow
3:54 PM 21.2 °F 13.6 °F 17.6 °F 86% 29.65 in 10.0 mi NNW 5.8 mph - N/A   Overcast
6:34 PM 21.2 °F 14.9 °F 17.6 °F 86% 29.65 in 7.0 mi NNW 4.6 mph - N/A   Overcast
6:54 PM 19.4 °F 10.4 °F 17.6 °F 93% 29.65 in 7.0 mi NNW 6.9 mph - N/A   Overcast
7:14 PM 19.4 °F 12.8 °F 17.6 °F 93% 29.65 in 7.0 mi NNW 4.6 mph - N/A   Overcast
7:34 PM 19.4 °F 11.5 °F 17.6 °F 93% 29.65 in 7.0 mi NNW 5.8 mph - N/A   Overcast
7:53 PM 21.2 °F 14.9 °F 17.6 °F 86% 29.65 in 7.0 mi NNW 4.6 mph - N/A   Overcast
8:14 PM 21.2 °F 13.6 °F 17.6 °F 86% 29.65 in 7.0 mi NNW 5.8 mph - N/A   Overcast
8:34 PM 21.2 °F 16.4 °F 17.6 °F 86% 29.66 in 7.0 mi NNW 3.5 mph - N/A   Overcast
8:54 PM 21.2 °F 13.6 °F 17.6 °F 86% 29.65 in 7.0 mi NNW 5.8 mph - N/A   Overcast
9:14 PM 21.2 °F 13.6 °F 19.4 °F 93% 29.65 in 7.0 mi NNW 5.8 mph - N/A   Overcast
9:33 PM 21.2 °F 12.6 °F 19.4 °F 93% 29.65 in 7.0 mi NNW 6.9 mph - N/A   Overcast
9:54 PM 21.2 °F 12.6 °F 17.6 °F 86% 29.64 in 7.0 mi NNW 6.9 mph - N/A   Overcast
10:14 PM 21.2 °F 12.6 °F 19.4 °F 93% 29.64 in 7.0 mi NNW 6.9 mph - N/A   Overcast
10:33 PM 21.2 °F 12.6 °F 19.4 °F 93% 29.63 in 7.0 mi NNW 6.9 mph - N/A   Overcast
10:54 PM 21.2 °F 12.6 °F 19.4 °F 93% 29.62 in 5.0 mi NNW 6.9 mph - N/A   Overcast
11:14 PM 21.2 °F 11.7 °F 19.4 °F 93% 29.62 in 5.0 mi NNW 8.1 mph - N/A   Overcast
11:34 PM 21.2 °F 12.6 °F 19.4 °F 93% 29.62 in 5.0 mi NNW 6.9 mph - N/A   Overcast
11:54 PM 21.2 °F 11.7 °F 19.4 °F 93% 29.61 in 5.0 mi NNW 8.1 mph - N/A   Overcast